Regional Weather Roundup
Issued by NWS

Home | Current Version | Previous Version | Graphics & Text | Print | Product List | Glossary On
Versions: 1 2 3 4 5 6 7 8 9 10 11 12 13 14 15 16 17 18 19 20 21 22 23 24 25 26 27
000
ASUS45 KCYS 232210
RWRWY

WYOMING REGIONAL WEATHER ROUNDUP
NATIONAL WEATHER SERVICE CHEYENNE WY
300 PM MST FRI FEB 23 2018

NOTE:  "FAIR" INDICATES FEW OR NO CLOUDS BELOW 12,000 FEET
WITH NO SIGNIFICANT WEATHER AND/OR OBSTRUCTIONS TO VISIBILITY.

WYZ001-232300-
YELLOWSTONE NATIONAL PARK

CITY           SKY/WX    TMP DP  RH WIND       PRES   REMARKS
LK YELLOWSTONE   N/A     13   3  64 CALM      29.86F
W YELLOWSTONE  NOT AVBL

$$
WYZ002>013-054>058-071-098>099-232300-
NORTHERN WYOMING

CITY           SKY/WX    TMP DP  RH WIND       PRES   REMARKS
JACKSON        FAIR      23   8  52 S5        29.91F WCI  17
CODY           FAIR      23   8  52 VRB3      29.92F
GREYBULL       FAIR      14   5  67 CALM      30.01F
WORLAND        FAIR      18   4  54 CALM      29.99F
SHERIDAN       FAIR      12   3  67 SW5       29.97F WCI   4
BUFFALO        PTSUNNY   19   7  59 CALM      29.91F
GILLETTE       FAIR      23  10  57 S17       29.95F WCI   9
HULETT         FAIR      28   7  40 MISG      29.98F
NEWCASTLE      FAIR      19   1  45 S10       30.04F WCI   8

$$
WYZ014>020-022>026-101>103-232300-
CENTRAL WYOMING

CITY           SKY/WX    TMP DP  RH WIND       PRES   REMARKS
BIG PINEY      FAIR      25   8  48 N8        29.86F WCI  16
PINEDALE       FAIR      23   7  50 NW12      29.87S WCI  12
DUBOIS           N/A    N/A N/A N/A MISG        N/A
LANDER         FAIR      17   7  64 CALM      29.91F
RIVERTON       FAIR      16   2  54 CALM      29.93F
CASPER         PTSUNNY   17   8  67 CALM      29.93F
DOUGLAS        FAIR      20  11  68 CALM      29.96F

$$
WYZ021-027>030-104>119-232300-
SOUTHERN WYOMING

CITY           SKY/WX    TMP DP  RH WIND       PRES   REMARKS
EVANSTON       LGT SNOW  15  11  83 SW6       29.90R VSB 1   WCI   6
ROCK SPRINGS   LGT SNOW  19  14  81 W10       29.85S WCI   7
DIXON          MOCLDY    31  15  51 SW12      29.86S WCI  21
RAWLINS        CLOUDY    21  16  81 NE7       29.85F WCI  12
SARATOGA       MOCLDY    27  18  69 NW7       29.84R WCI  19
LARAMIE        CLOUDY    22  16  78 SE26      29.82S WCI   5
CHEYENNE       CLOUDY    22  18  85 SE10      29.92F FOG     WCI  11
TORRINGTON     FAIR      31  15  52 SE14G20   30.00F WCI  21
PINE BLUFFS    MOCLDY    32  21  64 MISG      29.97F

$$




USA.gov is the U.S. government's official web portal to all federal, state and local government web resources and services.